• In Denmark
  • List of Countries
  • For 7 days
  • Water Temperature
  • Satellite Maps
  • Weather Map
  • Weather Widgets
  • user-avatar
    Login

    Hourly Weather Prutz

    Today, 16 December, Saturday

    Time Temperature Precipitation Wind Pressure Humidity
    00:00 -13°C° 0 mm 2 mps 618 mmHg 86%
    01:00 -14°C° 0 mm 2 mps 618 mmHg 86%
    02:00 -14°C° 0 mm 2 mps 618 mmHg 86%
    03:00 -14°C° 0 mm 2 mps 618 mmHg 86%
    04:00 -14°C° 0 mm 2 mps 618 mmHg 86%
    05:00 -13°C° 0.1 mm 2 mps 619 mmHg 86%
    06:00 -13°C° 0.1 mm 2 mps 619 mmHg 86%
    07:00 -10°C° 0.1 mm 1 mps 620 mmHg 86%
    08:00 -9°C° 0.1 mm 1 mps 621 mmHg 87%
    09:00 -8°C° 0.1 mm 1 mps 622 mmHg 88%
    10:00 -6°C° 0.1 mm 1 mps 623 mmHg 88%
    11:00 -7°C° 0.1 mm 2 mps 624 mmHg 88%
    12:00 -6°C° 0.1 mm 2 mps 624 mmHg 87%
    13:00 -5°C° 0.1 mm 2 mps 624 mmHg 87%
    14:00 -6°C° 0.2 mm 2 mps 625 mmHg 89%
    15:00 -6°C° 0.2 mm 2 mps 625 mmHg 91%
    16:00 -6°C° 0.2 mm 2 mps 625 mmHg 93%
    17:00 -7°C° 0.5 mm 2 mps 626 mmHg 94%
    18:00 -7°C° 0.5 mm 2 mps 626 mmHg 94%
    19:00 -8°C° 0.5 mm 2 mps 627 mmHg 95%
    20:00 -8°C° 0.5 mm 2 mps 627 mmHg 95%
    21:00 -8°C° 0.5 mm 2 mps 628 mmHg 95%
    22:00 -8°C° 0.5 mm 2 mps 628 mmHg 95%
    23:00 -8°C° 0.3 mm 2 mps 629 mmHg 95%

    Tomorrow, 17 December, Sunday

    Time Temperature Precipitation Wind Pressure Humidity
    00:00 -8°C° 0.3 mm 2 mps 629 mmHg 95%
    01:00 -9°C° 0.3 mm 2 mps 629 mmHg 95%
    02:00 -9°C° 0.3 mm 2 mps 629 mmHg 95%
    03:00 -9°C° 0.3 mm 2 mps 629 mmHg 94%
    04:00 -9°C° 0.3 mm 2 mps 629 mmHg 94%
    05:00 -8°C° 0.3 mm 1 mps 630 mmHg 94%
    06:00 -8°C° 0.3 mm 1 mps 630 mmHg 94%
    07:00 -8°C° 0.3 mm 1 mps 630 mmHg 94%
    08:00 -8°C° 0.3 mm 1 mps 631 mmHg 93%
    09:00 -9°C° 0.3 mm 2 mps 631 mmHg 93%
    10:00 -8°C° 0.3 mm 2 mps 632 mmHg 92%
    11:00 -8°C° 0.4 mm 2 mps 632 mmHg 91%
    12:00 -7°C° 0.4 mm 2 mps 632 mmHg 90%
    13:00 -7°C° 0.4 mm 2 mps 633 mmHg 89%
    14:00 -8°C° 0.3 mm 2 mps 633 mmHg 90%
    15:00 -8°C° 0.3 mm 2 mps 633 mmHg 92%
    16:00 -8°C° 0.3 mm 2 mps 633 mmHg 93%
    17:00 -9°C° 0.2 mm 2 mps 633 mmHg 93%
    18:00 -10°C° 0.2 mm 2 mps 634 mmHg 94%
    19:00 -10°C° 0.2 mm 2 mps 634 mmHg 94%
    20:00 -12°C° 0.1 mm 2 mps 634 mmHg 94%
    21:00 -11°C° 0.1 mm 1 mps 635 mmHg 94%
    22:00 -11°C° 0.1 mm 1 mps 635 mmHg 94%
    23:00 -12°C° 0 mm 1 mps 635 mmHg 93%

    Day after tomorrow, 18 December, Monday

    Time Temperature Precipitation Wind Pressure Humidity
    00:00 -15°C° 0 mm 2 mps 634 mmHg 92%
    01:00 -15°C° 0 mm 2 mps 634 mmHg 91%
    02:00 -15°C° 0 mm 2 mps 634 mmHg 89%
    03:00 -15°C° 0 mm 2 mps 634 mmHg 87%
    04:00 -15°C° 0 mm 2 mps 634 mmHg 86%
    05:00 -13°C° 0 mm 2 mps 634 mmHg 84%
    06:00 -12°C° 0 mm 2 mps 634 mmHg 83%
    07:00 -10°C° 0 mm 2 mps 634 mmHg 81%
    08:00 -9°C° 0.5 mm 2 mps 634 mmHg 85%
    09:00 -8°C° 0.5 mm 2 mps 634 mmHg 88%
    10:00 -7°C° 0.5 mm 2 mps 634 mmHg 92%
    11:00 -6°C° 1.3 mm 2 mps 633 mmHg 93%
    12:00 -5°C° 1.3 mm 2 mps 633 mmHg 94%
    13:00 -4°C° 1.3 mm 2 mps 633 mmHg 94%
    14:00 -4°C° 1.1 mm 2 mps 633 mmHg 95%
    15:00 -4°C° 1.1 mm 2 mps 633 mmHg 96%
    16:00 -5°C° 1.1 mm 2 mps 633 mmHg 96%
    17:00 -5°C° 0.7 mm 2 mps 633 mmHg 96%
    18:00 -5°C° 0.7 mm 2 mps 634 mmHg 97%
    19:00 -6°C° 0.7 mm 2 mps 634 mmHg 97%
    20:00 -7°C° 0.2 mm 2 mps 635 mmHg 96%
    21:00 -7°C° 0.2 mm 2 mps 635 mmHg 96%
    22:00 -8°C° 0.2 mm 2 mps 636 mmHg 96%
    23:00 -9°C° 0 mm 2 mps 636 mmHg 95%

    19 December, Tuesday

    Time Temperature Precipitation Wind Pressure Humidity
    00:00 -9°C° 0 mm 1 mps 636 mmHg 95%
    01:00 -11°C° 0 mm 1 mps 636 mmHg 94%
    02:00 -11°C° 0 mm 1 mps 636 mmHg 92%
    03:00 -11°C° 0 mm 1 mps 636 mmHg 90%
    04:00 -12°C° 0 mm 1 mps 636 mmHg 88%
    05:00 -12°C° 0 mm 1 mps 636 mmHg 86%
    06:00 -14°C° 0 mm 2 mps 637 mmHg 83%
    07:00 -14°C° 0 mm 2 mps 637 mmHg 81%
    08:00 -12°C° 0 mm 2 mps 638 mmHg 81%
    09:00 -9°C° 0 mm 2 mps 639 mmHg 81%
    10:00 -7°C° 0 mm 1 mps 640 mmHg 80%
    11:00 -4°C° 0 mm 1 mps 640 mmHg 80%
    12:00 -3°C° 0 mm 1 mps 640 mmHg 81%
    13:00 -2°C° 0 mm 1 mps 640 mmHg 81%
    14:00 -3°C° 0 mm 1 mps 640 mmHg 84%
    15:00 -6°C° 0 mm 1 mps 639 mmHg 88%
    16:00 -7°C° 0 mm 1 mps 639 mmHg 91%
    17:00 -8°C° 0 mm 1 mps 639 mmHg 89%
    18:00 -9°C° 0 mm 1 mps 639 mmHg 87%
    19:00 -10°C° 0 mm 1 mps 639 mmHg 84%
    20:00 -10°C° 0 mm 1 mps 640 mmHg 81%
    21:00 -10°C° 0 mm 1 mps 640 mmHg 78%
    22:00 -10°C° 0 mm 1 mps 640 mmHg 75%
    23:00 -9°C° 0 mm 1 mps 640 mmHg 74%

    20 December, Wednesday

    Time Temperature Precipitation Wind Pressure Humidity
    00:00 -9°C° 0 mm 1 mps 640 mmHg 73%
    01:00 -8°C° 0 mm 1 mps 640 mmHg 73%
    02:00 -7°C° 0 mm 1 mps 640 mmHg 74%
    03:00 -7°C° 0 mm 2 mps 641 mmHg 76%
    04:00 -6°C° 0 mm 2 mps 641 mmHg 77%
    05:00 -6°C° 0.2 mm 2 mps 641 mmHg 81%
    06:00 -6°C° 0.2 mm 2 mps 641 mmHg 84%
    07:00 -5°C° 0.2 mm 2 mps 641 mmHg 88%
    08:00 -5°C° 0.4 mm 2 mps 641 mmHg 89%
    09:00 -4°C° 0.4 mm 2 mps 642 mmHg 91%
    10:00 -3°C° 0.4 mm 2 mps 642 mmHg 93%
    11:00 -2°C° 0.4 mm 2 mps 642 mmHg 93%
    12:00 -2°C° 0.4 mm 2 mps 642 mmHg 94%
    13:00 -1°C° 0.4 mm 2 mps 642 mmHg 94%
    14:00 -1°C° 0.4 mm 2 mps 642 mmHg 94%
    15:00 -1°C° 0.4 mm 2 mps 642 mmHg 95%
    16:00 -1°C° 0.4 mm 2 mps 642 mmHg 95%
    17:00 -1°C° 0.5 mm 2 mps 642 mmHg 95%
    18:00 -1°C° 0.5 mm 2 mps 642 mmHg 95%
    19:00 -2°C° 0.5 mm 2 mps 643 mmHg 95%
    20:00 -2°C° 0.4 mm 2 mps 643 mmHg 95%
    21:00 -1°C° 0.4 mm 2 mps 643 mmHg 95%
    22:00 -1°C° 0.4 mm 2 mps 643 mmHg 95%
    23:00 -1°C° 0.2 mm 2 mps 643 mmHg 95%

    21 December, Thursday

    Time Temperature Precipitation Wind Pressure Humidity
    00:00 -2°C° 0.2 mm 2 mps 643 mmHg 95%
    01:00 -2°C° 0.2 mm 2 mps 643 mmHg 95%
    02:00 -2°C° 0.1 mm 2 mps 643 mmHg 95%
    03:00 0°C° 0.1 mm 1 mps 643 mmHg 94%
    04:00 0°C° 0.1 mm 1 mps 642 mmHg 94%
    05:00 -2°C° 0.1 mm 2 mps 643 mmHg 94%
    06:00 -2°C° 0.1 mm 2 mps 643 mmHg 94%
    07:00 -1°C° 0.1 mm 2 mps 643 mmHg 94%
    08:00 -1°C° 0.1 mm 2 mps 643 mmHg 94%
    09:00 +1°C° 0.1 mm 2 mps 644 mmHg 95%
    10:00 +1°C° 0.1 mm 2 mps 644 mmHg 95%
    11:00 +2°C° 0 mm 2 mps 644 mmHg 96%
    12:00 +2°C° 0 mm 2 mps 643 mmHg 97%
    13:00 +4°C° 0 mm 1 mps 643 mmHg 98%
    14:00 +3°C° 0 mm 1 mps 643 mmHg 97%
    15:00 +3°C° 0 mm 1 mps 642 mmHg 96%
    16:00 +2°C° 0 mm 1 mps 642 mmHg 95%
    17:00 +2°C° 0 mm 1 mps 642 mmHg 93%
    18:00 +1°C° 0 mm 1 mps 642 mmHg 91%
    19:00 0°C° 0 mm 1 mps 641 mmHg 89%
    20:00 0°C° 0 mm 1 mps 641 mmHg 89%
    21:00 0°C° 0 mm 1 mps 641 mmHg 89%
    22:00 0°C° 0 mm 1 mps 641 mmHg 88%
    23:00 0°C° 0 mm 1 mps 640 mmHg 89%
    Show more